Kuchera_Ratio
0.0 0.0 0.0 0.0 0.0 0.0 0.0 0.0 0.0 0.0 0.0 0.0 0.0 0.0 0.0 0.0 0.0 0.0 0.0 0.0 0.0 0.0 0.0 0.0 0.0 0.0 0.0 0.0 0.0 0.0 0.0 0.0 0.0 0.0 0.0 0.0 0.0 0.0 0.0 0.0 0.0 0.0 0.0
0.0 0.0 0.0 0.0 0.0 0.0 0.0 0.0 0.0 0.0 0.0 0.0 0.0 0.0 0.0 0.0 0.0 0.0 0.0 0.0 0.0 0.0 0.0 0.0 0.0 0.0 0.0 0.0 0.0 0.0 0.0 0.0 0.0 0.0 0.0 0.0 0.0 0.0 0.0 0.0 0.0 0.0 0.0
0.0 0.0 0.0 0.0 0.0 0.0 0.0 0.0 0.0 0.0 0.0 0.0 0.0 0.0 0.0 0.0 0.0 0.0 0.0 0.0 0.0 0.0 0.0 0.0 0.0 0.0 0.0 0.0 0.0 0.0 0.0 0.0 0.0 0.0 0.0 0.0 0.0 0.0 0.0 0.0 0.0 0.0 0.0
0.0 0.0 0.0 0.0 0.0 0.0 0.0 0.0 0.0 0.0 0.0 0.0 0.0 0.0 0.0 0.0 0.0 0.0 0.0 0.0 0.0 0.0 0.0 0.0 0.0 0.0 0.0 0.0 0.0 0.0 0.0 0.0 0.0 0.0 0.0 0.0 0.0 0.0 0.0 0.0 0.0 0.0 0.0
0.0 0.0 0.0 0.0 0.0 0.0 0.0 0.0 0.0 0.0 0.0 0.0 0.0 0.0 0.0 0.0 0.0 0.0 0.0 0.0 0.0 0.0 0.0 0.0 0.0 0.0 0.0 0.0 0.0 0.0 0.0 0.0 0.0 0.0 0.0 0.0 0.0 0.0 0.0 0.0 0.0 0.0 0.0
0.0 0.0 0.0 0.0 0.0 0.0 0.0 0.0 0.0 0.0 0.0 0.0 0.0 0.0 0.0 0.0 0.0 0.0 0.0 0.0 0.0 0.0 0.0 0.0 0.0 0.0 0.0 0.0 0.0 0.0 0.0 0.0 0.0 0.0 0.0 0.0 0.0 0.0 0.0 0.0 0.0 0.0 0.0
0.0 0.0 0.0 0.0 0.0 0.0 0.0 0.0 0.0 0.0 0.0 0.0 0.0 0.0 0.0 0.0 0.0 0.0 0.0 0.0 0.0 0.0 0.0 0.0 0.0 0.0 0.0 0.0 0.0 0.0 0.0 0.0 0.0 0.0 0.0 0.0 0.0 0.0 0.0 0.0 0.0 0.0 0.0
0.0 0.0 0.0 0.0 0.0 0.0 0.0 0.0 0.0 0.0 0.0 0.0 0.0 0.0 0.0 0.0 0.0 0.0 0.0 0.0 0.0 0.0 0.0 0.0 0.0 0.0 0.0 0.0 0.0 0.0 0.0 0.0 0.0 0.0 0.0 0.0 0.0 0.0 0.0 0.0 0.0 0.0 0.0
0.0 0.0 0.0 0.0 0.0 0.0 0.0 0.0 0.0 0.0 0.0 0.0 0.0 0.0 0.0 0.0 0.0 0.0 0.0 0.0 0.0 0.0 0.0 0.0 0.0 0.0 0.0 0.0 0.0 0.0 0.0 0.0 0.0 0.0 0.0 0.0 0.0 0.0 0.0 0.0 1.7 2.2 4.7
0.0 0.0 0.0 0.0 0.0 0.0 0.0 0.0 0.0 0.0 0.0 0.0 0.0 0.0 0.0 0.0 0.0 0.0 0.0 0.0 0.0 0.0 0.0 0.0 0.0 0.0 0.0 0.0 0.0 0.0 0.0 0.0 0.0 0.0 0.0 0.0 0.0 0.0 0.0 0.0 0.0 1.3 2.2
0.0 0.0 0.0 0.0 0.0 0.0 0.0 0.0 0.0 0.0 0.0 0.0 0.0 0.0 0.0 0.0 0.0 0.0 0.0 0.0 0.0 0.0 0.0 0.0 0.0 0.0 0.0 0.0 0.0 0.0 0.0 0.0 0.0 0.0 0.0 0.0 0.0 0.0 0.0 0.0 0.0 0.0 0.4
0.0 0.0 0.0 0.0 0.0 0.0 0.0 0.0 0.0 0.0 0.0 0.0 0.0 0.0 0.0 0.0 0.0 0.0 0.0 0.0 0.0 0.0 0.0 0.0 0.0 0.0 0.0 0.0 0.0 0.0 0.0 0.0 0.0 0.0 0.0 0.0 0.0 0.1 0.0 0.0 0.0 0.0 0.0
0.0 0.0 0.0 0.0 0.0 0.0 0.0 0.0 0.0 0.0 0.0 0.0 0.0 0.0 0.0 0.0 0.0 0.0 0.0 0.0 0.0 0.0 0.0 0.0 0.0 0.0 0.0 0.0 0.0 0.0 0.0 0.0 0.0 0.0 0.4 0.8 0.3 0.8 2.1 3.0 3.5 3.5 3.5
0.3 0.7 0.1 0.9 0.8 0.0 0.0 0.0 0.0 0.0 0.0 0.0 0.0 0.0 0.0 0.0 0.0 0.0 0.0 0.0 0.0 0.0 0.0 0.0 0.0 0.0 0.0 0.0 0.0 0.0 0.0 0.0 0.0 0.0 0.7 1.0 2.2 3.4 4.3 4.3 6.9 7.6 8.0
2.5 2.6 2.9 3.0 2.9 1.2 0.8 0.1 0.7 0.0 0.0 0.7 3.3 1.5 2.8 2.7 0.0 0.0 0.0 0.0 0.0 0.0 0.0 0.0 0.0 0.0 0.0 0.0 0.0 0.0 0.0 0.0 0.7 1.6 2.2 2.4 3.1 4.0 6.3 7.2 8.0 8.8 10.4
3.9 3.2 3.5 2.9 2.3 2.8 2.2 2.4 0.0 0.0 0.0 0.0 0.0 0.0 0.0 0.0 0.0 0.0 0.0 0.0 0.0 0.0 0.0 1.3 1.6 0.8 1.0 0.8 0.9 1.8 1.5 1.3 1.4 1.2 2.1 3.1 5.2 7.1 7.7 8.0 8.1 9.2 10.2
5.8 5.2 4.9 4.0 5.2 5.8 4.5 4.6 5.6 3.1 0.0 0.0 0.0 0.0 0.0 0.0 0.0 0.0 0.0 0.0 0.0 0.0 1.7 3.0 2.8 2.6 2.4 2.1 2.1 1.7 2.3 2.2 1.7 2.6 4.4 5.6 6.1 6.7 6.6 8.4 9.2 10.4 11.1
7.6 4.9 8.7 8.2 7.9 7.3 6.5 6.4 5.9 7.3 7.9 6.4 0.3 0.0 0.0 0.0 0.0 0.0 0.0 0.0 0.8 0.6 3.3 3.5 3.5 2.5 2.0 1.8 2.2 2.5 3.2 3.3 4.0 4.5 5.4 6.2 6.9 7.2 7.9 9.4 9.4 9.9 10.3
8.4 10.4 11.1 11.3 9.5 9.0 10.4 9.9 8.9 6.9 7.8 8.5 6.2 3.5 1.5 0.0 0.2 0.6 1.6 5.3 6.8 7.1 6.5 6.0 5.3 4.4 3.6 3.2 2.2 2.4 2.1 3.2 4.1 5.4 6.1 7.0 7.7 8.0 9.1 9.3 9.2 6.3 7.0
11.9 7.2 8.8 12.4 12.3 12.2 12.1 12.1 12.2 12.5 12.5 12.5 11.3 7.5 8.6 6.7 8.2 8.3 7.5 7.3 7.6 7.5 7.2 7.1 6.8 6.5 6.0 5.4 5.1 4.0 4.4 4.9 5.8 6.3 6.5 6.9 7.4 7.5 8.3 9.3 9.7 10.0 9.0
13.6 13.1 9.6 13.1 13.4 13.2 13.3 13.4 13.1 12.9 13.2 13.2 13.0 7.8 2.8 9.4 8.7 8.2 8.4 8.2 8.4 8.3 8.0 7.7 7.5 7.1 6.6 6.5 6.1 6.4 7.0 7.2 7.0 7.0 7.1 7.3 7.2 7.8 7.3 8.1 8.9 9.3 9.7
14.2 14.4 13.8 14.2 14.1 13.7 14.4 14.4 14.5 14.1 14.4 14.5 14.0 12.1 7.3 12.3 12.8 12.5 10.6 9.2 8.6 8.2 7.7 8.0 7.9 7.4 7.1 7.2 7.6 7.7 7.6 7.5 7.4 7.3 7.6 7.4 7.5 7.5 7.6 7.8 8.3 8.9 9.4
14.6 14.9 14.9 14.8 14.3 13.4 14.6 14.5 14.8 14.9 14.6 14.5 14.3 13.0 12.9 13.8 13.3 13.5 13.0 12.6 12.9 12.8 12.0 9.5 8.8 8.6 7.7 7.5 7.2 7.5 8.0 7.9 7.6 7.3 7.1 7.1 7.2 7.3 7.5 7.9 8.1 8.4 8.6
15.6 15.8 16.0 15.9 15.0 15.8 15.4 15.6 15.5 14.1 14.3 14.6 14.7 13.6 14.0 13.9 13.8 13.5 12.2 11.1 11.5 11.5 11.7 13.1 12.8 12.3 11.8 11.2 9.4 8.2 7.5 7.4 7.5 7.5 7.6 7.8 7.7 6.7 7.4 7.7 7.8 7.6 7.7
16.5 16.8 16.8 17.4 17.0 17.0 16.6 16.6 16.5 16.1 15.6 15.0 14.8 14.7 14.9 14.9 15.2 14.7 13.7 12.2 12.4 12.9 14.6 12.4 12.2 12.5 14.2 15.4 14.6 13.7 11.7 6.7 7.3 8.2 8.0 7.3 7.7 7.6 7.9 7.9 8.5 8.3 8.7
17.3 17.4 17.5 17.6 18.1 17.8 17.5 17.6 16.4 15.9 15.9 15.1 15.2 16.3 15.7 15.7 14.7 14.5 13.8 13.5 14.2 16.8 16.8 16.1 15.9 16.2 16.3 15.9 15.3 13.3 8.9 8.3 7.9 5.8 7.9 9.0 10.4 9.9 9.5 9.3 9.4 8.7 10.4